Date,TemperatureHighF,TemperatureAvgF,TemperatureLowF,DewpointHighF,DewpointAvgF,DewpointLowF,HumidityHigh,HumidityAvg,HumidityLow,PressureMaxIn,PressureMinIn,WindSpeedMaxMPH,WindSpeedAvgMPH,GustSpeedMaxMPH,PrecipitationSumIn
2013-1-1,46,43,38,44,40,33,95,88,78,30.25,30.02,12,4,15,0.02
2013-1-2,41,36,31,34,31,28,92,82,68,30.33,30.25,12,3,13,0.00
2013-1-3,50,39,26,36,31,25,95,75,48,30.45,30.33,11,2,13,0.00
2013-1-4,51,45,39,38,33,28,82,62,44,30.51,30.35,5,1,8,0.00
2013-1-5,56,45,36,42,38,34,94,79,55,30.35,30.21,10,1,10,0.00
2013-1-6,58,42,32,40,34,28,96,74,38,30.36,30.28,12,2,13,0.00
2013-1-7,55,43,29,40,34,27,94,74,45,30.35,30.10,12,1,12,0.00
2013-1-8,52,48,46,51,45,36,96,87,68,30.11,29.95,10,2,10,0.57
2013-1-9,56,53,50,54,52,49,97,96,95,30.12,29.98,14,2,16,2.99
2013-1-10,65,57,47,58,52,44,97,83,60,30.01,29.87,16,4,21,0.02
2013-1-11,72,60,47,58,49,44,89,70,42,29.96,29.78,17,6,22,0.00
2013-1-12,71,59,38,68,57,35,96,91,74,29.86,29.63,20,5,22,0.34
2013-1-13,45,38,31,36,31,24,89,76,61,30.26,29.85,17,8,22,0.01
2013-1-14,46,37,29,32,26,24,82,67,49,30.35,30.20,12,4,15,0.00
2013-1-15,37,34,31,33,29,23,93,82,61,30.22,30.12,13,5,16,0.07
2013-1-16,48,37,27,30,25,20,88,65,37,30.27,30.15,11,3,13,0.00
2013-1-17,60,44,29,38,33,25,90,66,42,30.48,30.23,13,2,15,0.00
2013-1-18,61,46,32,39,35,30,95,68,38,30.51,30.28,11,3,14,0.00
2013-1-19,65,49,36,45,39,33,91,70,42,30.28,30.15,18,3,18,0.00
2013-1-20,69,51,37,51,44,36,96,78,45,30.22,30.07,16,1,16,0.00
2013-1-21,61,49,41,46,42,36,96,78,52,30.25,30.11,10,2,11,0.00
2013-1-22,60,48,38,47,40,32,88,72,56,30.32,30.19,9,2,10,0.00
2013-1-23,73,58,42,56,50,40,95,77,49,30.26,30.13,13,2,15,0.00
2013-1-24,72,60,49,61,56,47,96,86,66,30.18,30.04,12,3,14,0.00
2013-1-25,63,53,47,60,50,45,96,90,80,30.17,29.99,13,2,15,0.00
2013-1-26,51,48,47,47,46,45,96,94,87,30.22,30.12,9,4,10,0.01
2013-1-27,74,61,47,64,57,46,97,86,63,30.12,29.93,16,6,18,0.00
2013-1-28,76,70,65,66,63,60,90,80,62,30.01,29.84,20,9,26,0.00
2013-1-29,76,66,53,67,62,49,93,86,54,29.85,29.42,25,8,33,0.65
2013-1-30,55,46,36,49,34,26,87,63,40,30.14,29.66,21,4,21,0.02
2013-1-31,67,49,36,38,29,23,80,51,20,30.30,30.10,17,4,17,0.00
2013-2-1,61,48,36,42,34,27,72,60,39,30.39,30.18,13,5,15,0.00
2013-2-2,67,54,42,51,42,36,85,66,36,30.29,30.14,12,3,16,0.00
2013-2-3,68,52,35,46,38,30,91,64,26,30.30,29.98,7,1,9,0.00
2013-2-4,65,58,53,58,49,35,95,74,45,29.98,29.79,13,3,14,0.00
2013-2-5,65,58,53,61,56,52,97,93,83,30.00,29.86,6,0,8,0.00
2013-2-6,61,57,53,59,56,52,97,94,90,30.03,29.90,13,4,15,0.00
2013-2-7,69,60,54,61,56,50,97,88,71,30.01,29.80,15,4,20,0.00
2013-2-8,64,53,45,50,44,38,86,72,40,30.22,30.01,15,5,18,0.00
2013-2-9,57,48,44,55,45,40,94,87,70,30.15,29.78,17,6,17,0.06
2013-2-10,67,59,48,64,48,29,95,71,25,30.00,29.65,20,3,26,0.34
2013-2-11,56,51,48,48,42,36,90,72,47,30.14,29.98,7,2,9,0.02
2013-2-12,51,48,45,49,46,43,95,92,85,30.06,29.80,14,3,15,0.71
2013-2-13,50,44,40,43,39,37,91,83,70,30.15,29.95,13,2,19,0.00
2013-2-14,66,49,34,44,38,32,96,70,28,30.11,30.00,11,1,14,0.00
2013-2-15,52,46,38,43,34,24,93,63,35,30.36,30.05,14,5,15,0.01
2013-2-16,52,42,33,36,30,23,84,64,42,30.39,30.18,13,2,13,0.00
2013-2-17,69,55,37,44,35,30,79,51,26,30.18,29.93,22,7,25,0.00
2013-2-18,63,57,52,56,46,37,80,67,46,30.07,29.81,21,10,25,0.00
2013-2-19,61,52,41,41,32,25,68,49,26,30.32,30.07,11,3,13,0.00
2013-2-20,53,45,41,40,37,31,88,75,43,30.19,29.83,16,8,18,0.12
2013-2-21,48,45,43,45,39,35,92,80,66,29.90,29.64,18,8,20,0.09
2013-2-22,49,43,36,42,33,29,91,69,50,30.11,29.90,13,5,14,0.00
2013-2-23,56,44,34,38,31,27,80,62,40,30.06,29.92,12,3,12,0.00
2013-2-27,42,42,42,29,29,29,59,59,59,30.16,30.16,5,5,15,0.00
2013-2-28,57,46,34,33,30,27,81,55,34,30.25,30.13,15,5,18,0.00
2013-3-1,53,44,32,34,31,28,84,62,41,30.26,30.16,18,5,18,0.00
2013-3-2,52,40,33,32,26,21,83,58,34,30.40,30.24,16,5,19,1.20
2013-3-3,67,51,31,41,33,26,88,54,31,30.24,29.83,20,7,20,0.00
2013-3-4,78,66,55,57,50,41,78,59,35,29.83,29.59,32,10,32,0.00
2013-3-5,66,52,45,58,34,23,76,51,27,30.33,29.64,26,8,28,0.00
2013-3-6,60,47,37,39,29,18,76,50,21,30.44,30.19,16,2,16,0.00
2013-3-7,68,54,39,38,34,28,78,48,27,30.27,30.11,14,4,16,0.00
2013-3-8,68,59,48,52,46,36,78,62,46,30.21,30.01,14,4,14,0.00
2013-3-9,72,64,57,61,57,46,86,78,61,30.01,29.65,23,11,29,0.00
2013-3-10,66,52,40,61,42,31,93,70,48,30.05,29.66,21,5,21,0.47
2013-3-11,57,44,33,36,30,25,85,61,31,30.08,29.99,12,2,17,0.00
2013-3-12,67,51,35,42,34,25,90,57,23,30.28,30.03,11,1,11,0.00
2013-3-13,66,56,47,44,36,29,78,50,27,30.44,30.28,5,1,7,0.00
2013-3-14,76,60,47,48,41,34,73,51,32,30.35,30.16,18,3,18,0.00
2013-3-15,79,66,53,55,49,44,83,57,33,30.16,29.88,18,6,22,0.00
2013-3-16,78,68,58,59,55,50,88,64,47,29.88,29.69,20,9,23,0.00
2013-3-17,76,67,55,62,59,51,91,76,58,29.77,29.61,18,5,18,0.00
2013-3-18,70,62,53,65,53,42,93,73,48,29.99,29.61,16,5,20,0.00
2013-3-19,68,58,50,49,43,39,80,60,39,30.10,29.93,10,3,13,0.00
2013-3-20,67,57,49,44,37,29,73,50,26,30.28,30.03,11,2,12,0.00
2013-3-21,65,56,49,55,40,33,76,55,40,30.02,29.60,18,6,27,0.00
2013-3-22,64,64,63,57,56,55,79,76,73,29.62,29.61,14,7,15,0.00
2013-3-24,53,46,40,48,34,27,90,63,44,30.15,29.80,20,7,27,0.01
2013-3-25,54,44,31,28,24,18,75,47,26,30.38,30.15,19,6,20,0.00
2013-3-26,55,44,34,34,25,21,70,48,27,30.49,30.31,13,3,13,0.00
2013-3-27,68,53,37,46,33,26,79,48,26,30.34,30.11,17,5,17,0.00
2013-3-28,70,62,51,56,51,40,82,69,51,30.23,30.09,16,6,16,0.00
2013-3-29,74,67,59,60,57,55,87,72,59,30.17,30.05,14,4,16,0.00
2013-3-30,76,66,57,67,60,55,95,83,68,30.05,29.88,14,3,19,0.65
2013-3-31,74,64,55,63,59,53,94,84,61,29.95,29.81,19,2,24,0.15
2013-4-1,80,64,49,58,53,48,96,70,39,30.05,29.91,0,0,0,0.01
2013-4-2,74,64,50,62,55,44,93,74,61,30.03,29.89,17,2,17,0.44
2013-4-3,53,49,44,47,44,41,93,83,72,30.13,29.95,15,3,15,0.12
2013-4-4,50,45,42,44,42,40,93,87,76,30.17,30.07,11,3,15,0.20
2013-4-5,70,54,40,52,45,39,95,75,44,30.22,30.03,7,0,9,0.00
2013-4-6,76,65,53,58,52,48,90,66,42,30.04,29.83,17,5,25,0.00
2013-4-7,73,67,60,61,59,56,90,76,65,29.92,29.75,16,7,18,0.00
2013-4-8,76,71,62,64,61,58,89,73,62,29.77,29.67,22,8,22,0.00
2013-4-9,84,75,68,68,64,61,84,69,49,29.72,29.62,22,9,23,0.00
2013-4-10,75,53,43,68,49,39,93,87,75,29.92,29.66,15,6,19,0.26
2013-4-11,44,41,39,39,36,34,85,82,79,29.95,29.89,13,6,16,0.00
2013-4-13,75,69,66,54,50,47,57,50,40,29.82,29.77,10,3,14,0.00
2013-4-14,81,69,53,64,58,49,92,68,51,29.76,29.54,14,4,19,0.00
2013-4-15,84,75,68,69,66,63,90,73,53,29.73,29.60,15,7,18,0.00
2013-4-16,87,78,71,70,67,65,83,71,48,29.88,29.73,15,3,16,0.00
2013-4-17,85,78,74,70,69,66,85,74,55,29.87,29.63,0,0,0,0.00
2013-4-18,76,58,47,69,51,35,92,78,62,30.11,29.56,0,0,0,1.08
2013-4-19,61,49,36,43,35,31,88,60,34,30.23,30.10,0,0,0,0.00
2013-4-20,70,58,43,47,40,36,79,54,30,30.20,30.02,0,0,0,0.00
2013-4-21,71,60,46,52,46,41,89,64,40,30.21,30.05,0,0,0,0.00
2013-4-22,77,65,52,59,52,45,86,65,46,30.11,29.85,0,0,0,0.00
2013-4-23,74,60,46,65,54,41,91,81,68,30.09,29.80,0,0,0,0.00
2013-4-24,62,51,41,48,42,37,90,71,48,30.28,30.11,0,0,0,0.26
2013-4-25,72,61,50,51,45,40,79,58,33,30.32,30.16,0,0,0,0.00
2013-4-26,75,66,58,66,57,45,86,73,56,30.18,29.97,0,0,0,0.00
2013-4-27,76,69,60,67,63,55,89,80,66,30.03,29.95,0,0,1,0.00
2013-4-28,79,65,52,67,59,51,96,84,63,30.04,29.84,2,0,4,0.00
2013-4-29,82,72,59,68,61,56,96,72,41,29.89,29.77,0,0,0,0.00
2013-4-30,83,71,57,67,62,56,95,74,49,29.81,29.72,0,0,0,0.00
2013-5-1,82,71,63,70,65,61,94,81,57,29.92,29.78,0,0,0,0.00
2013-5-2,68,56,43,64,52,40,93,86,77,30.25,29.91,17,5,24,0.11
2013-5-3,65,52,42,41,37,30,89,61,29,30.23,30.00,22,7,24,0.00
2013-5-4,72,57,43,42,38,32,79,53,24,30.00,29.84,17,3,19,0.00
2013-5-5,66,55,46,49,45,40,85,68,46,30.10,29.98,13,4,14,0.00
2013-5-6,51,48,46,47,45,44,93,91,86,30.04,30.02,0,0,3,0.00
2013-5-10,72,70,70,63,62,61,75,74,73,29.98,29.98,0,0,0,0.00
2013-5-11,72,64,58,61,57,53,86,79,50,30.13,29.94,1,0,5,0.00
2013-5-12,76,66,56,56,47,38,83,53,26,30.23,30.11,9,1,10,0.00
2013-5-13,84,68,52,56,50,45,83,55,30,30.23,30.08,11,2,12,0.00
2013-5-14,85,73,63,64,56,52,82,58,33,30.14,29.97,12,3,15,0.00
2013-5-15,77,69,66,68,64,56,94,84,58,30.03,29.81,15,5,20,0.92
2013-5-16,77,70,63,71,66,62,95,90,80,29.87,29.66,17,2,23,0.50
2013-5-17,87,77,68,75,72,67,96,84,64,29.84,29.76,11,2,13,0.00
2013-5-18,90,80,71,75,72,68,92,76,56,29.89,29.75,12,4,15,0.00
2013-5-19,88,80,71,72,68,66,88,70,49,29.82,29.66,17,7,24,0.00
2013-5-20,87,80,73,73,70,68,86,74,59,29.81,29.65,18,8,20,0.00
2013-5-21,86,74,63,75,68,61,95,83,59,29.81,29.62,17,4,21,2.94
2013-5-22,82,70,61,70,64,58,96,81,51,29.91,29.80,6,1,9,0.01
2013-5-23,86,79,70,76,72,68,93,81,66,30.04,29.90,7,0,8,0.00
2013-5-24,85,78,72,75,72,67,93,83,70,30.13,29.98,8,1,15,0.00
2013-5-25,84,76,70,75,70,66,93,82,65,30.14,30.01,12,2,13,0.00
2013-5-26,82,76,71,75,70,67,93,84,72,30.06,29.92,12,3,13,0.02
2013-5-27,86,78,72,71,69,67,90,74,55,29.97,29.79,14,5,19,0.00
2013-5-28,86,79,72,70,68,66,88,71,53,29.87,29.76,16,7,19,0.00
2013-5-29,84,78,73,72,70,68,87,76,66,29.84,29.71,16,8,20,0.00
2013-5-30,86,80,75,75,72,69,85,77,66,29.79,29.68,17,7,21,0.00
2013-5-31,90,82,77,78,74,72,87,75,59,29.82,29.65,17,6,17,0.00
2013-6-1,89,80,71,77,73,67,92,79,64,29.89,29.70,18,4,18,0.03
2013-6-2,83,75,68,71,63,55,93,70,41,30.01,29.88,10,2,10,0.00
2013-6-3,85,75,62,69,64,58,88,70,47,29.96,29.81,6,1,7,0.00
2013-6-4,88,78,69,73,69,64,85,73,55,29.98,29.77,12,3,15,0.00
2013-6-5,88,79,70,77,72,67,93,80,56,29.93,29.71,11,1,17,0.01
2013-6-6,79,73,68,74,69,65,93,87,77,29.88,29.74,13,1,19,0.47
2013-6-7,85,74,65,67,62,58,87,68,42,29.93,29.84,9,2,11,0.00
2013-6-8,88,75,62,68,64,59,96,71,46,29.92,29.77,11,2,11,0.00
2013-6-9,90,77,70,74,69,65,93,79,52,29.91,29.82,12,1,14,0.15
2013-6-10,96,82,70,77,72,67,95,72,43,29.92,29.86,9,1,10,0.00
2013-6-11,92,82,73,76,73,70,92,74,55,29.99,29.88,11,3,13,0.00
2013-6-12,91,82,75,76,74,72,93,76,57,30.02,29.89,8,2,13,0.00
2013-6-13,79,76,75,72,72,71,90,86,81,29.94,29.93,3,0,4,0.00
2013-6-15,77,76,73,75,74,70,95,93,89,29.91,29.87,5,0,18,0.01
2013-6-16,92,84,77,80,74,71,93,75,51,29.97,29.83,8,2,9,0.00
2013-6-17,88,80,69,78,74,66,94,83,66,30.01,29.82,20,2,20,0.60
2013-6-18,82,78,73,76,72,70,95,84,73,29.93,29.83,6,1,9,0.00
2013-6-19,88,79,71,78,73,70,96,84,60,29.97,29.86,6,1,9,0.00
2013-6-20,92,84,74,77,74,71,94,73,51,30.01,29.91,10,3,12,0.00
2013-6-21,92,84,75,77,73,70,91,72,51,30.04,29.94,10,3,12,0.00
2013-6-22,92,83,74,77,73,70,88,71,52,30.02,29.86,10,3,11,0.00
2013-6-23,92,84,76,76,72,70,88,70,50,29.97,29.86,14,3,14,0.00
2013-6-24,93,84,76,76,72,70,89,69,48,30.01,29.86,13,3,13,0.01
2013-6-25,93,85,76,76,73,70,88,69,48,29.98,29.80,13,5,15,0.00
2013-6-26,83,81,79,75,74,72,80,77,75,29.84,29.83,9,4,11,0.00
2013-7-4,82,79,73,71,68,64,75,70,63,29.92,29.88,3,1,6,0.35
2013-7-5,94,82,67,72,66,62,89,61,39,29.97,29.84,5,1,6,0.00
2013-7-6,94,82,70,75,66,61,84,62,36,29.92,29.82,6,2,7,0.00
2013-7-7,94,84,73,75,71,66,84,65,42,29.96,29.87,13,2,15,0.00
2013-7-8,96,83,75,76,73,72,90,74,47,30.05,29.94,9,2,10,0.00
2013-7-9,94,80,76,76,72,70,87,78,50,30.08,30.02,6,1,10,1.20
2013-7-10,102,101,101,71,70,68,38,37,35,29.91,29.88,4,2,10,0.00
2013-7-11,91,84,78,76,74,72,83,73,58,29.92,29.85,3,1,6,0.06
2013-7-12,85,85,85,74,74,74,71,71,71,29.89,29.89,1,1,5,0.00
2013-7-13,84,84,83,73,73,72,70,70,70,29.89,29.89,3,2,5,0.00
2013-7-14,76,74,73,70,70,70,89,87,83,29.90,29.88,9,4,9,0.30
2013-7-15,70,70,70,68,68,68,94,94,94,29.93,29.92,4,1,6,0.23
2013-7-18,96,90,76,76,73,69,81,59,44,30.13,29.94,15,1,15,0.00
2013-7-19,83,77,74,76,73,68,92,86,75,30.04,29.90,6,1,8,0.05
2013-7-20,94,81,72,78,73,70,95,80,52,29.94,29.81,6,1,11,0.00
2013-7-21,94,84,74,78,74,71,93,75,52,29.90,29.81,7,2,11,0.00
2013-7-22,96,86,77,78,75,73,90,72,52,29.94,29.82,15,2,15,0.00
2013-7-23,96,85,78,79,75,71,87,72,55,29.94,29.77,10,2,10,0.00
2013-7-24,90,82,73,77,73,70,92,77,61,29.97,29.81,13,1,13,0.28
2013-7-25,92,83,72,77,73,69,91,74,52,30.01,29.92,7,0,9,0.00
2013-7-26,80,79,77,74,73,72,84,83,80,29.98,29.79,9,1,9,0.00
2013-7-27,87,80,74,73,72,68,86,76,58,29.98,29.86,6,0,9,0.00
2013-7-28,90,79,69,75,70,67,93,76,54,29.96,29.83,7,1,11,0.00
2013-7-29,92,84,76,77,74,72,92,74,57,29.98,29.89,9,3,11,0.00
2013-7-30,95,86,78,77,73,70,85,67,48,30.05,29.91,14,3,14,0.00
2013-7-31,83,79,78,71,70,68,75,74,66,30.02,29.89,11,1,11,0.00
2013-8-1,99,85,78,78,72,69,82,68,40,29.98,29.83,15,1,15,0.00
2013-8-2,97,86,78,78,73,71,86,67,44,29.91,29.82,14,2,14,0.00
2013-8-3,96,87,79,78,72,68,81,63,40,29.97,29.87,9,2,10,0.00
2013-8-4,96,85,79,77,74,70,81,69,46,30.03,29.88,5,0,9,0.00
2013-8-5,98,89,85,75,72,67,69,59,37,29.98,29.79,9,1,15,0.00
2013-8-6,99,89,84,76,72,68,69,58,39,29.88,29.75,8,2,11,0.00
2013-8-7,86,81,80,72,70,69,72,71,61,29.86,29.75,7,1,9,0.00
2013-8-8,99,86,80,77,72,70,74,63,41,29.87,29.72,7,1,9,0.00
2013-8-9,98,87,77,74,70,66,85,60,35,29.91,29.79,9,1,10,0.00
2013-8-10,100,87,75,77,72,65,81,63,37,29.99,29.87,10,1,13,0.00
2013-8-11,98,85,75,77,73,69,89,68,41,30.02,29.90,10,1,10,0.00
2013-8-12,97,86,77,76,73,69,88,67,42,30.01,29.87,10,1,10,0.00
2013-8-13,96,82,78,77,73,71,87,77,50,29.95,29.84,8,1,11,0.02
2013-8-14,87,70,0,76,62,0,83,64,62,29.98,29.88,7,1,10,0.00
2013-8-15,87,80,69,70,65,60,81,62,44,30.04,29.91,6,1,6,0.00
2013-8-16,76,76,76,63,63,63,64,64,64,30.05,29.93,1,1,1,0.00
2013-8-17,76,76,76,63,63,63,64,64,64,30.06,29.93,1,1,1,0.00
2013-8-18,76,76,76,63,63,63,64,64,64,30.06,29.95,1,1,1,0.00
2013-8-19,76,76,76,63,63,63,64,64,64,30.06,29.91,1,1,1,0.00
2013-8-20,76,76,76,63,63,63,64,64,64,30.03,29.92,1,1,1,0.00
2013-8-21,76,76,76,63,63,63,64,64,64,30.08,29.95,1,1,1,0.00
2013-8-22,76,76,76,63,63,63,64,64,64,30.06,29.90,1,1,1,0.00
2013-8-23,76,76,76,63,63,63,64,64,64,30.00,29.86,1,1,1,0.00
2013-8-24,76,76,76,63,63,63,64,64,64,30.05,29.93,1,1,1,0.00
2013-8-25,76,76,76,63,63,63,64,64,64,30.13,30.01,1,1,1,0.00
2013-8-26,76,76,76,63,63,63,64,64,64,30.15,30.02,1,1,1,0.00
2013-8-27,76,76,76,63,63,63,64,64,64,30.11,29.98,1,1,1,0.00
2013-8-28,76,76,76,63,63,63,64,64,64,30.07,29.95,1,1,1,0.00
2013-8-29,76,76,76,63,63,63,64,64,64,30.04,29.91,1,1,1,0.00
2013-8-30,76,76,76,63,63,63,64,64,64,29.98,29.83,1,1,1,0.00
2013-8-31,76,42,0,63,34,0,64,35,64,29.89,29.75,1,0,1,0.00
2013-9-1,0,0,0,0,0,0,0,0,100,29.87,29.73,0,0,0,0.00
2013-9-2,0,0,0,0,0,0,0,0,100,29.97,29.82,0,0,0,0.00
2013-9-3,0,0,0,0,0,0,0,0,100,29.95,29.82,0,0,0,0.00
2013-9-4,0,0,0,0,0,0,0,0,100,30.03,29.90,0,0,0,0.00
2013-9-5,0,0,0,0,0,0,0,0,100,30.09,29.97,0,0,0,0.00
2013-9-11,0,0,0,0,0,0,0,0,100,30.11,29.98,0,0,0,0.00
2013-9-12,0,0,0,0,0,0,0,0,100,30.05,29.88,0,0,0,0.00
2013-9-13,0,0,0,0,0,0,0,0,100,29.94,29.80,0,0,0,0.00
2013-9-14,0,0,0,0,0,0,0,0,100,29.98,29.85,0,0,0,0.00
2013-9-15,0,0,0,0,0,0,0,0,100,30.01,29.93,0,0,0,0.00
2013-9-16,0,0,0,0,0,0,0,0,100,30.01,29.94,0,0,0,0.00
2013-9-17,0,0,0,0,0,0,0,0,100,30.06,29.92,0,0,0,0.00
2013-9-18,0,0,0,0,0,0,0,0,100,30.00,29.86,0,0,0,0.00
2013-9-19,0,0,0,0,0,0,0,0,100,29.98,29.82,0,0,0,0.00
2013-9-20,0,0,0,0,0,0,0,0,100,29.90,29.79,0,0,0,0.00
2013-9-21,0,0,0,0,0,0,0,0,100,29.93,29.81,0,0,0,0.00
2013-9-22,0,0,0,0,0,0,0,0,100,29.92,29.78,0,0,0,0.00
2013-9-23,0,0,0,0,0,0,0,0,100,29.85,29.73,0,0,0,0.00
2013-9-24,0,0,0,0,0,0,0,0,100,29.82,29.78,0,0,0,0.00
2013-9-25,0,0,0,0,0,0,0,0,100,29.87,29.75,0,0,0,0.00
2013-9-26,0,0,0,0,0,0,0,0,100,29.88,29.78,0,0,0,0.00
2013-9-27,0,0,0,0,0,0,0,0,100,29.95,29.84,0,0,0,0.00
2013-9-28,0,0,0,0,0,0,0,0,100,29.98,29.87,0,0,0,0.00
2013-9-29,0,0,0,0,0,0,0,0,100,30.00,29.86,0,0,0,0.00
2013-9-30,0,0,0,0,0,0,0,0,100,29.88,29.78,0,0,0,0.00
2013-10-1,0,0,0,0,0,0,0,0,100,29.93,29.82,0,0,0,0.00
2013-10-2,0,0,0,0,0,0,0,0,100,29.98,29.85,0,0,0,0.00
2013-10-3,0,0,0,0,0,0,0,0,100,29.93,29.81,0,0,0,0.00
2013-10-4,0,0,0,0,0,0,0,0,100,29.90,29.82,0,0,0,0.00
2013-10-5,0,0,0,0,0,0,0,0,100,30.04,29.86,0,0,0,0.00
2013-10-6,0,0,0,0,0,0,0,0,100,30.07,29.96,0,0,0,0.00
2013-10-7,0,0,0,0,0,0,0,0,100,30.12,30.01,0,0,0,0.00
2013-10-8,0,0,0,0,0,0,0,0,100,30.10,29.98,0,0,0,0.00
2013-10-9,0,0,0,0,0,0,0,0,100,30.07,29.97,0,0,0,0.00
2013-10-10,0,0,0,0,0,0,0,0,100,30.06,29.89,0,0,0,0.00
2013-10-11,0,0,0,0,0,0,0,0,100,29.95,29.82,0,0,0,0.00
2013-10-12,0,0,0,0,0,0,0,0,100,30.04,29.87,0,0,0,0.00
2013-10-13,0,0,0,0,0,0,0,0,100,30.18,30.03,0,0,0,0.00
2013-10-14,0,0,0,0,0,0,0,0,100,30.12,29.92,0,0,0,0.00
2013-10-15,0,0,0,0,0,0,0,0,100,30.01,29.89,0,0,0,0.00
2013-10-16,0,0,0,0,0,0,0,0,100,30.04,29.95,0,0,0,0.00
2013-10-17,0,0,0,0,0,0,0,0,100,30.10,29.96,0,0,0,0.00
2013-10-18,0,0,0,0,0,0,0,0,100,30.01,29.88,0,0,0,0.00
2013-10-19,0,0,0,0,0,0,0,0,100,30.17,30.01,0,0,0,0.00
2013-10-20,0,0,0,0,0,0,0,0,100,30.06,29.88,0,0,0,0.00
2013-10-21,0,0,0,0,0,0,0,0,100,30.05,29.90,0,0,0,0.00
2013-10-22,0,0,0,0,0,0,0,0,100,30.12,29.99,0,0,0,0.00
2013-10-23,0,0,0,0,0,0,0,0,100,30.11,30.01,0,0,0,0.00
2013-10-24,0,0,0,0,0,0,0,0,100,30.18,30.03,0,0,0,0.00
2013-11-7,0,0,0,0,0,0,0,0,100,30.37,30.35,0,0,0,0.00
2013-11-8,0,0,0,0,0,0,0,0,100,30.35,30.12,0,0,0,0.00
2013-11-9,0,0,0,0,0,0,0,0,100,30.22,30.12,0,0,0,0.00
2013-11-10,0,0,0,0,0,0,0,0,100,30.33,30.21,0,0,0,0.00
2013-11-11,0,0,0,0,0,0,0,0,100,30.26,30.14,0,0,0,0.00
2013-11-12,0,0,0,0,0,0,0,0,100,30.64,30.23,0,0,0,0.00
2013-11-13,0,0,0,0,0,0,0,0,100,30.66,30.39,0,0,0,0.00
2013-11-15,0,0,0,0,0,0,0,0,100,29.87,29.84,0,0,0,0.00
2013-11-16,0,0,0,0,0,0,0,0,100,29.87,29.69,0,0,0,0.00
2013-11-17,0,0,0,0,0,0,0,0,100,29.98,29.68,0,0,0,0.00
2013-11-18,0,0,0,0,0,0,0,0,100,30.16,29.98,0,0,0,0.00
2013-11-19,0,0,0,0,0,0,0,0,100,30.17,30.11,0,0,0,0.00
2013-11-21,0,0,0,0,0,0,0,0,100,30.10,29.96,0,0,0,0.00
2013-11-22,66,7,0,44,6,0,92,12,47,30.39,30.09,0,0,0,0.07
2013-11-23,45,42,40,44,40,36,95,91,78,30.51,30.37,0,0,0,0.18
2013-11-24,41,37,35,35,30,25,87,78,55,30.57,30.34,0,0,0,0.06
2013-11-25,37,36,35,36,34,31,95,93,87,30.34,30.12,0,0,0,0.61
2013-11-26,48,42,37,42,37,30,95,85,70,30.31,30.08,0,0,0,0.00
2013-11-27,49,38,29,31,27,24,84,67,43,30.44,30.31,0,0,0,0.00
2013-11-28,53,38,29,37,30,25,91,76,44,30.46,30.35,0,0,0,0.00
2013-11-29,59,43,30,41,35,28,95,75,44,30.53,30.35,0,0,0,0.00
2013-11-30,67,52,39,52,44,36,90,75,54,30.36,30.15,0,0,0,0.00
2013-12-1,69,59,49,60,54,45,91,84,70,30.16,29.85,0,0,0,0.00
2013-12-2,66,55,48,57,51,45,94,87,70,29.85,29.64,0,0,0,0.00
2013-12-3,74,57,46,56,48,44,96,76,35,29.66,29.49,0,0,0,0.03
2013-12-4,81,66,57,65,59,47,94,77,52,29.82,29.56,0,0,0,0.00
2013-12-5,57,40,34,47,34,30,93,78,65,30.12,29.80,0,0,0,0.17
2013-12-6,35,32,28,34,30,25,95,93,89,30.47,30.05,0,0,0,1.27
2013-12-7,33,30,27,30,27,24,93,90,86,30.50,30.27,0,0,0,0.00
2013-12-8,39,36,32,37,34,29,94,92,88,30.27,30.05,0,0,0,0.01
2013-12-9,38,36,33,36,33,29,94,92,85,30.37,30.13,0,0,0,0.00
2013-12-10,45,33,25,30,26,22,89,76,55,30.51,30.35,0,0,0,0.00
2013-12-11,49,40,28,38,33,25,92,78,58,30.56,30.33,0,0,0,0.00
2013-12-12,53,41,34,36,32,28,87,70,40,30.61,30.32,0,0,0,0.00
2013-12-13,44,42,40,42,37,32,95,85,66,30.32,29.81,0,0,0,0.56
2013-12-14,46,43,35,45,40,32,95,90,81,30.30,29.78,0,0,0,0.00
2013-12-15,57,41,29,41,34,28,95,79,50,30.35,30.24,0,0,0,0.00
2013-12-16,66,49,36,42,38,33,90,69,35,30.26,30.15,0,0,0,0.00
2013-12-17,69,50,38,46,40,34,92,70,42,30.28,30.19,0,0,0,0.00
2013-12-18,71,52,37,48,42,34,94,69,38,30.27,30.02,0,0,0,0.00
2013-12-19,63,54,52,57,50,48,91,89,82,30.02,29.92,0,0,0,0.00
2013-12-21,55,48,40,54,46,39,97,96,91,29.74,29.51,0,0,0,2.49
2013-12-22,53,41,33,52,39,28,97,91,79,30.38,29.75,0,0,0,0.00
2013-12-23,48,37,30,36,31,26,91,78,57,30.55,30.36,0,0,0,0.00
2013-12-24,56,41,30,38,32,27,90,74,46,30.55,30.28,0,0,0,0.00
2013-12-25,56,44,34,45,37,31,91,77,55,30.38,30.27,0,0,0,0.00
2013-12-26,58,44,36,42,37,33,91,78,55,30.43,30.31,0,0,0,0.00
2013-12-27,61,46,36,44,38,34,94,78,48,30.45,30.31,0,0,0,0.00
2013-12-28,64,49,38,44,40,35,94,73,44,30.31,29.96,0,0,0,0.00
2013-12-29,57,45,36,46,37,29,83,73,63,30.24,29.94,0,0,0,0.00
2013-12-30,47,38,33,30,28,26,75,65,47,30.39,30.21,0,0,0,0.00
2013-12-31,58,42,29,34,29,24,85,62,33,30.44,30.23,0,0,0,0.00
2014-1-1,67,49,33,52,41,30,93,74,54,30.22,29.88,0,0,0,0.00
2014-1-2,47,37,28,35,24,21,75,60,42,30.45,30.09,0,0,0,0.00